Time,TemperatureF,DewpointF,PressureIn,WindDirection,WindDirectionDegrees,WindSpeedMPH,WindSpeedGustMPH,Humidity,HourlyPrecipIn,Conditions,Clouds,dailyrainin,SoftwareType,DateUTC
2013-02-09 00:01:00,53.2,50.0,29.86,West,270,6.8,-999.0,89,-99.99,,,0.00,Acu-Link.com,2013-02-09 05:01:00,
2013-02-09 00:16:00,53.2,50.0,29.86,WNW,292,7.3,-999.0,89,-99.99,,,0.00,Acu-Link.com,2013-02-09 05:16:00,
2013-02-09 00:32:00,52.5,49.7,29.86,West,270,3.7,-999.0,90,-99.99,,,0.00,Acu-Link.com,2013-02-09 05:32:00,
2013-02-09 00:47:00,52.5,49.7,29.86,West,270,5.8,-999.0,90,-99.99,,,0.00,Acu-Link.com,2013-02-09 05:47:00,
2013-02-09 01:02:00,52.2,49.7,29.88,WNW,292,5.3,-999.0,91,-99.99,,,0.00,Acu-Link.com,2013-02-09 06:02:00,
2013-02-09 01:18:00,51.4,49.2,29.88,West,270,4.2,-999.0,92,-99.99,,,0.00,Acu-Link.com,2013-02-09 06:18:00,
2013-02-09 01:33:00,51.1,48.9,29.88,West,270,3.7,-999.0,92,-99.99,,,0.00,Acu-Link.com,2013-02-09 06:33:00,
2013-02-09 01:48:00,51.1,48.6,29.88,NNW,337,7.3,-999.0,91,-99.99,,,0.00,Acu-Link.com,2013-02-09 06:48:00,
2013-02-09 02:03:00,50.0,47.2,29.88,West,270,5.3,-999.0,90,-99.99,,,0.00,Acu-Link.com,2013-02-09 07:03:00,
2013-02-09 02:19:00,49.3,45.9,29.88,West,270,5.3,-999.0,88,-99.99,,,0.00,Acu-Link.com,2013-02-09 07:19:00,
2013-02-09 02:34:00,48.7,44.7,29.88,WNW,292,2.2,-999.0,86,-99.99,,,0.00,Acu-Link.com,2013-02-09 07:34:00,
2013-02-09 02:49:00,48.0,44.0,29.89,NW,315,2.7,-999.0,86,-99.99,,,0.00,Acu-Link.com,2013-02-09 07:49:00,
2013-02-09 03:05:00,47.1,43.1,29.89,WNW,292,3.2,-999.0,86,-99.99,,,0.00,Acu-Link.com,2013-02-09 08:05:00,
2013-02-09 03:20:00,46.6,42.9,29.90,West,270,2.2,-999.0,87,-99.99,,,0.00,Acu-Link.com,2013-02-09 08:20:00,
2013-02-09 03:35:00,46.0,42.4,29.91,West,270,2.2,-999.0,87,-99.99,,,0.00,Acu-Link.com,2013-02-09 08:35:00,
2013-02-09 03:51:00,45.5,42.2,29.92,West,270,3.7,-999.0,88,-99.99,,,0.00,Acu-Link.com,2013-02-09 08:51:00,
2013-02-09 04:06:00,45.5,41.6,29.92,NNE,22,5.3,-999.0,86,-99.99,,,0.00,Acu-Link.com,2013-02-09 09:06:00,
2013-02-09 04:21:00,45.0,40.5,29.93,NNW,337,3.7,-999.0,84,-99.99,,,0.00,Acu-Link.com,2013-02-09 09:21:00,
2013-02-09 04:36:00,44.2,40.0,29.95,West,270,1.1,-999.0,85,-99.99,,,0.00,Acu-Link.com,2013-02-09 09:36:00,
2013-02-09 04:52:00,43.5,40.2,29.95,West,270,1.7,-999.0,88,-99.99,,,0.00,Acu-Link.com,2013-02-09 09:52:00,
2013-02-09 05:07:00,43.3,40.0,29.96,North,0,2.2,-999.0,88,-99.99,,,0.00,Acu-Link.com,2013-02-09 10:07:00,
2013-02-09 05:22:00,43.5,39.6,29.97,North,0,4.7,-999.0,86,-99.99,,,0.00,Acu-Link.com,2013-02-09 10:22:00,
2013-02-09 05:38:00,43.3,38.8,29.98,NNW,337,2.7,-999.0,84,-99.99,,,0.00,Acu-Link.com,2013-02-09 10:38:00,
2013-02-09 05:53:00,42.8,38.9,29.99,North,0,3.7,-999.0,86,-99.99,,,0.00,Acu-Link.com,2013-02-09 10:53:00,
2013-02-09 06:09:00,42.4,37.9,29.99,North,0,3.2,-999.0,84,-99.99,,,0.00,Acu-Link.com,2013-02-09 11:09:00,
2013-02-09 06:24:00,42.3,38.1,30.00,SSW,202,2.7,-999.0,85,-99.99,,,0.00,Acu-Link.com,2013-02-09 11:24:00,
2013-02-09 06:40:00,41.7,38.1,30.00,West,270,2.7,-999.0,87,-99.99,,,0.00,Acu-Link.com,2013-02-09 11:40:00,
2013-02-09 06:55:00,41.4,37.8,30.01,NNE,22,2.7,-999.0,87,-99.99,,,0.00,Acu-Link.com,2013-02-09 11:55:00,
2013-02-09 07:10:00,41.5,37.9,30.02,SSW,202,0.0,-999.0,87,-99.99,,,0.00,Acu-Link.com,2013-02-09 12:10:00,
2013-02-09 07:26:00,41.2,37.3,30.02,NNW,337,0.0,-999.0,86,-99.99,,,0.00,Acu-Link.com,2013-02-09 12:26:00,
2013-02-09 07:41:00,43.7,38.3,30.03,North,0,3.2,-999.0,81,-99.99,,,0.00,Acu-Link.com,2013-02-09 12:41:00,
2013-02-09 07:57:00,46.0,38.9,30.03,NNW,337,3.7,-999.0,76,-99.99,,,0.00,Acu-Link.com,2013-02-09 12:57:00,
2013-02-09 08:12:00,48.4,39.4,30.05,ENE,67,3.7,-999.0,71,-99.99,,,0.00,Acu-Link.com,2013-02-09 13:12:00,
2013-02-09 08:27:00,48.7,38.6,30.06,NNE,22,5.3,-999.0,68,-99.99,,,0.00,Acu-Link.com,2013-02-09 13:27:00,
2013-02-09 08:42:00,48.0,39.1,30.05,NNE,22,6.3,-999.0,71,-99.99,,,0.00,Acu-Link.com,2013-02-09 13:42:00,
2013-02-09 08:58:00,47.5,38.6,30.06,NW,315,4.7,-999.0,71,-99.99,,,0.00,Acu-Link.com,2013-02-09 13:58:00,
2013-02-09 09:13:00,48.0,38.0,30.07,NNE,22,5.3,-999.0,68,-99.99,,,0.00,Acu-Link.com,2013-02-09 14:13:00,
2013-02-09 09:28:00,48.7,38.2,30.07,North,0,4.7,-999.0,67,-99.99,,,0.00,Acu-Link.com,2013-02-09 14:28:00,
2013-02-09 09:43:00,48.7,36.7,30.08,NNE,22,3.7,-999.0,63,-99.99,,,0.00,Acu-Link.com,2013-02-09 14:43:00,
2013-02-09 09:59:00,50.0,36.2,30.09,NNW,337,6.3,-999.0,59,-99.99,,,0.00,Acu-Link.com,2013-02-09 14:59:00,
2013-02-09 10:14:00,50.5,38.0,30.08,NE,45,4.2,-999.0,62,-99.99,,,0.00,Acu-Link.com,2013-02-09 15:14:00,
2013-02-09 10:29:00,51.1,36.8,30.09,NNE,22,4.7,-999.0,58,-99.99,,,0.00,Acu-Link.com,2013-02-09 15:29:00,
2013-02-09 10:45:00,52.2,37.0,30.09,NE,45,5.8,-999.0,56,-99.99,,,0.00,Acu-Link.com,2013-02-09 15:45:00,
2013-02-09 11:00:00,53.2,37.9,30.08,NE,45,3.7,-999.0,56,-99.99,,,0.00,Acu-Link.com,2013-02-09 16:00:00,
2013-02-09 11:15:00,54.5,37.2,30.08,WNW,292,4.2,-999.0,52,-99.99,,,0.00,Acu-Link.com,2013-02-09 16:15:00,
2013-02-09 11:31:00,55.8,37.9,30.08,NE,45,3.2,-999.0,51,-99.99,,,0.00,Acu-Link.com,2013-02-09 16:31:00,
2013-02-09 11:46:00,56.1,37.2,30.08,ENE,67,4.2,-999.0,49,-99.99,,,0.00,Acu-Link.com,2013-02-09 16:46:00,
2013-02-09 12:01:00,57.4,37.3,30.07,ENE,67,7.8,-999.0,47,-99.99,,,0.00,Acu-Link.com,2013-02-09 17:01:00,
2013-02-09 12:16:00,58.6,32.4,30.06,NNE,22,5.8,-999.0,37,-99.99,,,0.00,Acu-Link.com,2013-02-09 17:16:00,
2013-02-09 12:31:00,59.4,31.0,30.06,NNW,337,3.7,-999.0,34,-99.99,,,0.00,Acu-Link.com,2013-02-09 17:31:00,
2013-02-09 12:46:00,60.1,28.6,30.06,WNW,292,5.3,-999.0,30,-99.99,,,0.00,Acu-Link.com,2013-02-09 17:46:00,
2013-02-09 13:02:00,59.5,26.4,30.05,East,90,2.7,-999.0,28,-99.99,,,0.00,Acu-Link.com,2013-02-09 18:02:00,
2013-02-09 13:17:00,61.5,30.6,30.04,East,90,4.2,-999.0,31,-99.99,,,0.00,Acu-Link.com,2013-02-09 18:17:00,
2013-02-09 13:32:00,60.6,29.0,30.04,West,270,2.7,-999.0,30,-99.99,,,0.00,Acu-Link.com,2013-02-09 18:32:00,
2013-02-09 13:48:00,62.6,27.2,30.04,NW,315,4.7,-999.0,26,-99.99,,,0.00,Acu-Link.com,2013-02-09 18:48:00,
2013-02-09 14:03:00,62.1,27.7,30.04,NNW,337,3.7,-999.0,27,-99.99,,,0.00,Acu-Link.com,2013-02-09 19:03:00,
2013-02-09 14:19:00,62.8,28.3,30.04,ESE,112,6.3,-999.0,27,-99.99,,,0.00,Acu-Link.com,2013-02-09 19:19:00,
2013-02-09 14:34:00,62.6,28.2,30.04,NE,45,3.7,-999.0,27,-99.99,,,0.00,Acu-Link.com,2013-02-09 19:34:00,
2013-02-09 14:49:00,62.8,27.4,30.04,ENE,67,4.2,-999.0,26,-99.99,,,0.00,Acu-Link.com,2013-02-09 19:49:00,
2013-02-09 15:04:00,63.1,24.7,30.04,NW,315,2.7,-999.0,23,-99.99,,,0.00,Acu-Link.com,2013-02-09 20:04:00,
2013-02-09 15:20:00,63.9,23.2,30.04,East,90,7.3,-999.0,21,-99.99,,,0.00,Acu-Link.com,2013-02-09 20:20:00,
2013-02-09 15:35:00,63.7,29.1,30.03,NNE,22,8.9,-999.0,27,-99.99,,,0.00,Acu-Link.com,2013-02-09 20:35:00,
2013-02-09 15:50:00,60.8,38.8,30.03,South,180,1.7,-999.0,44,-99.99,,,0.00,Acu-Link.com,2013-02-09 20:50:00,
2013-02-09 16:06:00,59.5,39.3,30.03,ESE,112,8.3,-999.0,47,-99.99,,,0.00,Acu-Link.com,2013-02-09 21:06:00,
2013-02-09 16:21:00,58.8,38.1,30.03,ESE,112,6.3,-999.0,46,-99.99,,,0.00,Acu-Link.com,2013-02-09 21:21:00,
2013-02-09 16:36:00,57.2,36.6,30.03,NNE,22,2.7,-999.0,46,-99.99,,,0.00,Acu-Link.com,2013-02-09 21:36:00,
2013-02-09 16:52:00,56.7,38.8,30.04,WSW,247,2.7,-999.0,51,-99.99,,,0.00,Acu-Link.com,2013-02-09 21:52:00,
2013-02-09 17:07:00,55.4,40.4,30.04,ESE,112,2.7,-999.0,57,-99.99,,,0.00,Acu-Link.com,2013-02-09 22:07:00,
2013-02-09 17:22:00,54.3,39.4,30.05,SSE,157,2.2,-999.0,57,-99.99,,,0.00,Acu-Link.com,2013-02-09 22:22:00,
2013-02-09 17:38:00,55.0,41.4,30.05,SW,225,0.0,-999.0,60,-99.99,,,0.00,Acu-Link.com,2013-02-09 22:38:00,
2013-02-09 17:53:00,53.1,40.8,30.06,WNW,292,0.0,-999.0,63,-99.99,,,0.00,Acu-Link.com,2013-02-09 22:53:00,
2013-02-09 18:08:00,51.1,40.9,30.05,South,180,0.0,-999.0,68,-99.99,,,0.00,Acu-Link.com,2013-02-09 23:08:00,
2013-02-09 18:23:00,49.6,40.9,30.05,South,180,0.0,-999.0,72,-99.99,,,0.00,Acu-Link.com,2013-02-09 23:23:00,
2013-02-09 18:39:00,48.2,42.0,30.07,ESE,112,0.0,-999.0,79,-99.99,,,0.00,Acu-Link.com,2013-02-09 23:39:00,
2013-02-09 18:54:00,46.6,41.7,30.07,ESE,112,0.0,-999.0,83,-99.99,,,0.00,Acu-Link.com,2013-02-09 23:54:00,
2013-02-09 19:09:00,46.2,41.6,30.07,East,90,1.7,-999.0,84,-99.99,,,0.00,Acu-Link.com,2013-02-10 00:09:00,
2013-02-09 19:25:00,46.4,41.2,30.07,ESE,112,0.0,-999.0,82,-99.99,,,0.00,Acu-Link.com,2013-02-10 00:25:00,
2013-02-09 19:40:00,46.0,41.7,30.08,NNE,22,0.0,-999.0,85,-99.99,,,0.00,Acu-Link.com,2013-02-10 00:40:00,
2013-02-09 19:56:00,45.0,42.0,30.08,ENE,67,2.2,-999.0,89,-99.99,,,0.00,Acu-Link.com,2013-02-10 00:56:00,
2013-02-09 20:11:00,44.8,41.5,30.09,East,90,1.7,-999.0,88,-99.99,,,0.00,Acu-Link.com,2013-02-10 01:11:00,
2013-02-09 20:26:00,44.2,41.2,30.09,NNE,22,0.0,-999.0,89,-99.99,,,0.00,Acu-Link.com,2013-02-10 01:26:00,
2013-02-09 20:42:00,44.1,41.1,30.10,NNW,337,0.0,-999.0,89,-99.99,,,0.00,Acu-Link.com,2013-02-10 01:42:00,
2013-02-09 20:57:00,43.5,40.8,30.11,SSW,202,0.0,-999.0,90,-99.99,,,0.00,Acu-Link.com,2013-02-10 01:57:00,
2013-02-09 21:12:00,43.7,41.5,30.12,SSW,202,0.0,-999.0,92,-99.99,,,0.00,Acu-Link.com,2013-02-10 02:12:00,
2013-02-09 21:28:00,43.0,41.1,30.14,SSW,202,0.0,-999.0,93,-99.99,,,0.00,Acu-Link.com,2013-02-10 02:28:00,
2013-02-09 21:43:00,43.0,41.7,30.14,ESE,112,0.0,-999.0,95,-99.99,,,0.00,Acu-Link.com,2013-02-10 02:43:00,
2013-02-09 21:58:00,42.4,42.1,30.14,NNE,22,1.7,-999.0,99,-99.99,,,0.00,Acu-Link.com,2013-02-10 02:58:00,
2013-02-09 22:14:00,42.4,42.1,30.13,NE,45,1.1,-999.0,99,-99.99,,,0.01,Acu-Link.com,2013-02-10 03:14:00,
2013-02-09 22:29:00,42.1,41.8,30.13,ESE,112,0.0,-999.0,99,-99.99,,,0.01,Acu-Link.com,2013-02-10 03:29:00,
2013-02-09 22:44:00,41.5,41.0,30.13,ESE,112,0.0,-999.0,98,-99.99,,,0.01,Acu-Link.com,2013-02-10 03:44:00,
2013-02-09 22:59:00,41.4,40.9,30.13,East,90,0.0,-999.0,98,-99.99,,,0.01,Acu-Link.com,2013-02-10 03:59:00,
2013-02-09 23:15:00,40.5,40.0,30.12,East,90,0.0,-999.0,98,-99.99,,,0.01,Acu-Link.com,2013-02-10 04:15:00,
2013-02-09 23:30:00,40.1,39.8,30.13,NNE,22,1.1,-999.0,99,-99.99,,,0.01,Acu-Link.com,2013-02-10 04:30:00,
2013-02-09 23:45:00,40.5,40.2,30.13,NNE,22,0.0,-999.0,99,-99.99,,,0.01,Acu-Link.com,2013-02-10 04:45:00,